Location: Podia
(1.5569°N, 32.3469°E)
Time: 20:16:55
(UTC+00:00)

GPS 2-14 Rocket1 - Pass Details

Date: 01 June 2020
Orbit: 476 x 541 km, 20.7° (Epoch: 05 July)

Event Time Altitude Azimuth Distance (km) Brightness Sun altitude
Rises 16:50:47 0° 254° (WSW) 2,676 7.2 -13.8°
Reaches altitude 10° 16:53:05 10° 258° (WSW) 1,787 6.3 -14.3°
Maximum altitude 16:57:12 60° 338° (NNW) 612 3.2 -15.2°
Enters shadow 17:00:43 14° 57° (ENE) 1,561 4.8 -16.0°
